User: anonymous
Location: Wildlife_Club
(35.6000°N, 81.4330°W)
Time: 23:48:36
(UTC-04:00)
Language:

Cosmos 1782 - Orbit

View from above orbital plane
View from above orbital plane
View from above satellite
View from above satellite

Ground track
Ground track

The orbit data is extracted from the following two-line orbital elements,

1 16986U 86074A   14106.36869491  .00003008  00000-0  22411-3 0  7287
2 16986 082.5084 165.0610 0011154 336.0705 024.0001 15.02543719496692
Epoch (UTC): 16 April 2014 08:50:55
Eccentricity: 0.0011154
inclination: 82.5084°
perigee height: 551 km
apogee height: 567 km
right ascension of ascending node: 165.0610°
argument of perigee: 336.0705°
revolutions per day: 15.02543719
mean anomaly at epoch: 24.0001°
orbit number at epoch: 49669

The dashed part of the orbit path shows where the satellite is in the earth's shadow,  

DLR